[[{"header":{"parameterUnit":"m.s-1","parameterCategory":1,"la1":30.2991,"la2":30.254,"lo1":-89.0895,"lo2":-89.0444,"dy":0.0017,"dx":0.0017,"nx":28,"ny":28,"refTime":"2025-12-05T03:00:00:Z","depth":0,"parameterNumber":2,"parameterNumberName":"U-component_of_WINDS"},"data":[0,0,0,0,0,0,0,0,0,0,0,0,0,0,0,0,0,0,0,0,0,0,0,0,0,0,0,0,0,0,0,0,0,0,0,0,0,0,0,0,0,0,0,0,0,0,0,0,0,0,0,0,0,0,0,0,0,0,-0.621,-0.6211,0,-0.63,-0.6301,-0.6302,-0.6318,-0.6317,-0.6316,-0.6316,-0.6407,-0.641,-0.6413,0,0,0,0,0,0,0,0,0,0,0,0,0,-0.6052,-0.6055,-0.621,-0.6211,-0.6212,-0.63,-0.6301,-0.6302,-0.6318,-0.6317,-0.6316,-0.6315,-0.6406,-0.641,-0.6414,0,0,0,0,0,0,0,0,0,0,0,0,0,-0.6129,-0.6055,-0.621,-0.6231,-0.6234,-0.6299,-0.6301,-0.6302,-0.6318,-0.6317,-0.6316,-0.6315,-0.6405,-0.6409,-0.6414,-0.6465,0,0,-0.6428,-0.643,0,0,0,0,0,0,0,0,-0.6124,-0.6135,-0.6227,-0.6229,-0.6233,-0.6296,-0.6279,-0.6357,-0.6318,-0.6286,-0.6316,-0.6314,-0.6371,-0.6379,-0.6398,-0.6469,-0.6473,-0.6429,-0.6432,-0.6434,-0.6435,0,0,0,0,0,0,0,-0.6119,-0.6131,-0.6246,-0.6228,-0.6232,-0.6235,-0.6245,-0.6293,-0.6334,-0.6289,-0.629,-0.63,-0.6373,-0.6393,-0.64,-0.6475,-0.6429,-0.6433,-0.6436,-0.6438,-0.6592,-0.6593,0,0,0,0,0,0,-0.611,-0.6126,-0.6243,-0.6248,-0.6175,-0.6239,-0.625,-0.6277,-0.6333,-0.6341,-0.6301,-0.6301,-0.6386,-0.6395,-0.6403,-0.6467,-0.6434,-0.6438,-0.6441,-0.6591,-0.6592,-0.6594,0,0,0,0,0,0,-0.6107,-0.612,-0.6239,-0.6188,-0.6203,-0.6243,-0.6273,-0.6279,-0.63,-0.6343,-0.635,-0.6315,-0.6385,-0.6397,-0.6449,-0.647,-0.644,-0.6444,-0.6589,-0.6591,-0.6593,-0.6593,0,0,0,0,0,0,-0.6102,-0.6119,-0.6139,-0.6188,-0.6206,-0.6284,-0.6275,-0.6282,-0.6308,-0.6308,-0.6358,-0.6365,-0.6385,-0.6442,-0.6454,-0.6476,-0.6448,-0.6587,-0.659,-0.6592,-0.6592,-0.6595,-0.6598,0,0,0,0,0,-0.6096,-0.6136,-0.614,-0.6154,-0.6232,-0.6285,-0.6295,-0.6318,-0.631,-0.633,-0.6357,-0.6363,-0.6466,-0.6448,-0.6461,-0.6484,-0.6586,-0.6589,-0.6592,-0.659,-0.6594,-0.6598,0,0,0,0,0,0,-0.6089,-0.6143,-0.6148,-0.6205,-0.624,-0.6288,-0.6314,-0.6322,-0.6361,-0.6359,-0.6386,-0.6397,-0.6448,-0.6472,-0.6451,-0.6536,-0.6525,-0.6531,-0.6519,-0.6524,-0.6527,-0.652,-0.6452,0,0,0,0,0,-0.6093,-0.6133,-0.6178,-0.6223,-0.6241,-0.6274,-0.6298,-0.6313,-0.6351,-0.6366,-0.6397,-0.6434,-0.6474,-0.65,-0.654,-0.6595,-0.6606,-0.6617,-0.662,-0.6623,-0.6628,-0.6658,-0.6664,-0.6603,-0.6603,-0.6603,0,0,-0.6104,-0.6138,-0.6161,-0.6222,-0.6252,-0.6291,-0.6287,-0.6329,-0.6359,-0.6372,-0.6424,-0.6448,-0.649,-0.6544,-0.657,-0.6565,-0.6646,-0.6627,-0.6628,-0.6632,-0.6661,-0.6667,-0.6672,-0.6605,-0.6605,-0.6604,0,0,-0.6143,-0.6173,-0.6214,-0.6244,-0.6288,-0.631,-0.6319,-0.6366,-0.6382,-0.6435,-0.6445,-0.6481,-0.655,-0.6579,-0.6603,-0.6652,-0.6659,-0.6664,-0.6681,-0.671,-0.6715,-0.6719,-0.6736,-0.6742,-0.6669,-0.6669,-0.6669,0,-0.6151,-0.6211,-0.6235,-0.6276,-0.6302,-0.6316,-0.6358,-0.6385,-0.644,-0.6457,-0.6451,-0.6538,-0.6567,-0.6628,-0.664,-0.6659,-0.6671,-0.6659,-0.6712,-0.6717,-0.6721,-0.6738,-0.6744,-0.6669,-0.6669,-0.6669,-0.6669,0,-0.6218,-0.6259,-0.6287,-0.634,-0.6369,-0.641,-0.6439,-0.6466,-0.6477,-0.65,-0.6552,-0.6588,-0.6635,-0.665,-0.6662,-0.6712,-0.6708,-0.6707,-0.6696,-0.6727,-0.6743,-0.675,-0.667,-0.667,-0.667,-0.6669,0,0,-0.6256,-0.632,-0.633,-0.6353,-0.6403,-0.6435,-0.6476,-0.6522,-0.6544,-0.6581,-0.6616,-0.6674,-0.6673,-0.67,-0.6715,-0.6741,-0.6777,-0.6736,-0.6738,-0.6742,-0.6834,-0.6834,-0.6841,-0.6781,-0.6782,-0.6783,-0.683,0,-0.6301,-0.6376,-0.6398,-0.646,-0.6499,-0.6512,-0.6548,-0.6581,-0.6603,-0.6638,-0.6662,-0.6702,-0.6698,-0.6715,-0.674,-0.6767,-0.6795,-0.6764,-0.6814,-0.6815,-0.6803,-0.685,-0.6851,-0.6894,-0.6837,-0.6838,-0.6839,0,-0.6364,-0.6402,-0.6469,-0.6512,-0.6529,-0.6561,-0.6604,-0.6638,-0.6676,-0.669,-0.6719,-0.6732,-0.6775,-0.6762,-0.6821,-0.6799,-0.6821,-0.6836,-0.6839,-0.6844,-0.6829,-0.6857,-0.6908,-0.6914,-0.6849,-0.6848,-0.6847,0,-0.6385,-0.6453,-0.6501,-0.6521,-0.6573,-0.6595,-0.6617,-0.6655,-0.668,-0.6718,-0.6734,-0.6776,-0.6799,-0.6831,-0.6854,-0.6842,-0.6911,-0.69,-0.6924,-0.6923,-0.6938,-0.6937,-0.6993,-0.6952,-0.6952,-0.6952,-0.6952,0,-0.6433,-0.6473,-0.6511,-0.6541,-0.6586,-0.661,-0.6653,-0.6677,-0.6709,-0.6743,-0.6757,-0.6789,-0.6818,-0.6853,-0.6871,-0.6917,-0.6928,-0.694,-0.6944,-0.6939,-0.6937,-0.6953,-0.6951,-0.6953,-0.6953,-0.6953,-0.6952,0,-0.6464,-0.6491,-0.6545,-0.6589,-0.6601,-0.6632,-0.6671,-0.67,-0.6721,-0.6764,-0.6775,-0.681,-0.6852,-0.6878,-0.6932,-0.6944,-0.6994,-0.6998,-0.6982,-0.6984,-0.7006,-0.7003,-0.7075,-0.7085,-0.7037,-0.7037,-0.7037,0,-0.6494,-0.6525,-0.6572,-0.6596,-0.6619,-0.6657,-0.6683,-0.6708,-0.6734,-0.678,-0.6803,-0.6846,-0.6882,-0.6948,-0.6978,-0.7018,-0.7023,-0.7045,-0.7029,-0.7022,-0.7023,-0.7021,-0.7024,-0.7048,-0.7048,-0.7048,-0.7049,0,-0.6542,-0.6554,-0.6591,-0.6633,-0.6663,-0.6697,-0.6731,-0.675,-0.678,-0.6809,-0.6852,-0.688,-0.6934,-0.6976,-0.7019,-0.7042,-0.7051,-0.7053,-0.7061,-0.7056,-0.7045,-0.7051,-0.6989,-0.7052,-0.7051,-0.7051,-0.7051,-0.7051,-0.6574,-0.6602,-0.6639,-0.668,-0.6708,-0.6739,-0.6768,-0.6793,-0.683,-0.6876,-0.6888,-0.6933,-0.6969,-0.7028,-0.7052,-0.7087,-0.7084,-0.7095,-0.7098,-0.71,-0.7101,-0.7039,-0.7095,-0.7095,-0.7095,-0.7095,-0.7095,0,-0.6623,-0.6648,-0.6685,-0.6732,-0.6763,-0.6768,-0.6805,-0.6832,-0.6871,-0.6904,-0.6939,-0.6988,-0.7029,-0.7061,-0.7103,-0.7125,-0.7129,-0.7135,-0.7134,-0.7139,-0.7101,-0.709,-0.713,-0.713,-0.713,-0.713,-0.713,-0.713,-0.6652,-0.67,-0.6716,-0.6777,-0.6801,-0.6845,-0.6866,-0.6895,-0.6921,-0.6976,-0.7009,-0.703,-0.7063,-0.7107,-0.7144,-0.7152,-0.7167,-0.7172,-0.7181,-0.7145,-0.7141,-0.7138,-0.7128,-0.7175,-0.7175,-0.7215,-0.7216,-0.7216]},{"header":{"parameterUnit":"m.s-1","parameterCategory":1,"la1":30.2991,"la2":30.254,"lo1":-89.0895,"lo2":-89.0444,"dy":0.0017,"dx":0.0017,"nx":28,"ny":28,"refTime":"2025-12-05T03:00:00:Z","depth":0,"parameterNumber":3,"parameterNumberName":"V-component_of_WINDS"},"data":[0,0,0,0,0,0,0,0,0,0,0,0,0,0,0,0,0,0,0,0,0,0,0,0,0,0,0,0,0,0,0,0,0,0,0,0,0,0,0,0,0,0,0,0,0,0,0,0,0,0,0,0,0,0,0,0,0,0,-1.9613,-1.9613,0,-1.9647,-1.9647,-1.9648,-1.9634,-1.9633,-1.9632,-1.9632,-1.9665,-1.9666,-1.9668,0,0,0,0,0,0,0,0,0,0,0,0,0,-1.9533,-1.9535,-1.9613,-1.9613,-1.9614,-1.9647,-1.9648,-1.9648,-1.9634,-1.9633,-1.9632,-1.9631,-1.9664,-1.9666,-1.9668,0,0,0,0,0,0,0,0,0,0,0,0,0,-1.9568,-1.9535,-1.9613,-1.9611,-1.9611,-1.9647,-1.9648,-1.9648,-1.9634,-1.9633,-1.9632,-1.9631,-1.9664,-1.9666,-1.9668,-1.9708,0,0,-1.9676,-1.9677,0,0,0,0,0,0,0,0,-1.9566,-1.9571,-1.9611,-1.9611,-1.9611,-1.9635,-1.9632,-1.9668,-1.9635,-1.9625,-1.9632,-1.963,-1.9656,-1.9659,-1.9668,-1.9709,-1.9711,-1.9676,-1.9678,-1.9679,-1.9679,0,0,0,0,0,0,0,-1.9563,-1.9569,-1.9626,-1.9611,-1.9612,-1.9608,-1.9611,-1.9638,-1.9647,-1.9626,-1.9625,-1.9629,-1.9656,-1.9665,-1.9668,-1.9711,-1.9676,-1.9678,-1.968,-1.9681,-1.9787,-1.9788,0,0,0,0,0,0,-1.9561,-1.9567,-1.9625,-1.9627,-1.9585,-1.961,-1.9614,-1.9629,-1.9647,-1.9648,-1.963,-1.9629,-1.9662,-1.9666,-1.967,-1.9717,-1.9679,-1.9681,-1.9682,-1.9785,-1.9787,-1.9788,0,0,0,0,0,0,-1.956,-1.9566,-1.9624,-1.9597,-1.9604,-1.9613,-1.9629,-1.963,-1.964,-1.965,-1.9651,-1.9639,-1.9661,-1.9666,-1.9699,-1.9718,-1.9682,-1.9684,-1.9784,-1.9786,-1.9788,-1.9812,0,0,0,0,0,0,-1.9557,-1.9566,-1.9581,-1.9597,-1.9605,-1.9653,-1.963,-1.9631,-1.9644,-1.9642,-1.9658,-1.966,-1.9661,-1.9695,-1.9701,-1.9721,-1.9686,-1.9782,-1.9785,-1.9787,-1.9809,-1.9814,-1.9819,0,0,0,0,0,-1.9554,-1.9586,-1.9582,-1.9589,-1.9625,-1.9654,-1.9658,-1.9659,-1.9646,-1.9661,-1.9668,-1.9659,-1.9715,-1.9698,-1.9705,-1.9726,-1.9781,-1.9784,-1.9787,-1.9807,-1.9813,-1.9818,0,0,0,0,0,0,-1.9572,-1.9588,-1.9584,-1.9622,-1.9637,-1.9652,-1.9671,-1.9666,-1.9684,-1.9681,-1.9681,-1.9684,-1.9718,-1.9725,-1.9706,-1.9765,-1.9746,-1.975,-1.9759,-1.9765,-1.9769,-1.9767,-1.9688,0,0,0,0,0,-1.958,-1.9603,-1.9616,-1.9648,-1.9656,-1.9662,-1.9675,-1.9674,-1.9689,-1.9695,-1.9704,-1.9718,-1.9738,-1.9752,-1.9771,-1.981,-1.9813,-1.9828,-1.9832,-1.9836,-1.984,-1.9861,-1.9867,-1.9798,-1.9798,-1.9798,0,0,-1.9597,-1.9609,-1.9623,-1.9652,-1.9663,-1.9686,-1.9667,-1.9692,-1.9709,-1.9698,-1.973,-1.9737,-1.9752,-1.9788,-1.9804,-1.9795,-1.986,-1.984,-1.9843,-1.9845,-1.9865,-1.9871,-1.9877,-1.98,-1.98,-1.98,0,0,-1.964,-1.9652,-1.968,-1.9692,-1.9709,-1.9714,-1.972,-1.9736,-1.974,-1.9772,-1.9764,-1.9784,-1.982,-1.9831,-1.9842,-1.9889,-1.9882,-1.9896,-1.992,-1.994,-1.9946,-1.9951,-1.9968,-1.9974,-1.9899,-1.99,-1.99,0,-1.9659,-1.9694,-1.9695,-1.9721,-1.9734,-1.9726,-1.9754,-1.9765,-1.9788,-1.9796,-1.9786,-1.9831,-1.984,-1.9879,-1.9891,-1.9899,-1.9907,-1.9894,-1.9945,-1.995,-1.9954,-1.9971,-1.9977,-1.9901,-1.9901,-1.9901,-1.9901,0,-1.9717,-1.9741,-1.9762,-1.9785,-1.9799,-1.9826,-1.9831,-1.9846,-1.9844,-1.9849,-1.9881,-1.9893,-1.9914,-1.9923,-1.9922,-1.9962,-1.9955,-1.9945,-1.9926,-1.9963,-1.9978,-1.9984,-1.9903,-1.9903,-1.9902,-1.9902,0,0,-1.9771,-1.9795,-1.9802,-1.9813,-1.9832,-1.985,-1.9876,-1.9898,-1.9911,-1.9927,-1.9949,-1.9979,-1.997,-1.9982,-1.9981,-1.9999,-2.0036,-1.9987,-1.9987,-1.9995,-2.0081,-2.0088,-2.0095,-2.0031,-2.0033,-2.0034,-2.0079,0,-1.9816,-1.9863,-1.9865,-1.9907,-1.993,-1.9922,-1.9945,-1.9959,-1.9964,-1.9983,-1.9989,-2.0011,-1.9997,-2.0004,-2.0021,-2.0028,-2.0053,-2.0025,-2.0051,-2.0052,-2.0048,-2.0103,-2.0111,-2.0154,-2.0085,-2.0086,-2.0087,0,-1.9874,-1.9893,-1.9938,-1.9954,-1.9963,-1.9984,-2.0004,-2.0023,-2.0038,-2.004,-2.0054,-2.0051,-2.0077,-2.0057,-2.0093,-2.0074,-2.0085,-2.009,-2.0091,-2.0094,-2.0072,-2.0107,-2.0167,-2.0174,-2.0096,-2.0095,-2.0095,0,-1.9909,-1.9946,-1.9977,-1.9986,-2.0006,-2.002,-2.0029,-2.0043,-2.0056,-2.0074,-2.0082,-2.0102,-2.0113,-2.0129,-2.0131,-2.0116,-2.0167,-2.0147,-2.0169,-2.0169,-2.018,-2.018,-2.0243,-2.0188,-2.0187,-2.0187,-2.0187,0,-1.9959,-1.9987,-1.9993,-2.0013,-2.0044,-2.0045,-2.0076,-2.0083,-2.0096,-2.0116,-2.0111,-2.013,-2.0131,-2.0151,-2.0152,-2.0182,-2.0187,-2.0189,-2.019,-2.019,-2.019,-2.0197,-2.0194,-2.0189,-2.0189,-2.0188,-2.0188,0,-2.0003,-2.0009,-2.0043,-2.0059,-2.0063,-2.0086,-2.0099,-2.0117,-2.0122,-2.0148,-2.0154,-2.0161,-2.0184,-2.0188,-2.0214,-2.0215,-2.0251,-2.0248,-2.0246,-2.0245,-2.0267,-2.0265,-2.0338,-2.0347,-2.0286,-2.0286,-2.0287,0,-2.0035,-2.0056,-2.0074,-2.0088,-2.0097,-2.0119,-2.0133,-2.0135,-2.0149,-2.0168,-2.0184,-2.0207,-2.0225,-2.0261,-2.0268,-2.0289,-2.0286,-2.031,-2.0289,-2.0289,-2.0286,-2.0285,-2.0287,-2.0314,-2.0315,-2.0315,-2.0316,0,-2.0089,-2.0091,-2.0111,-2.0133,-2.0149,-2.0166,-2.0182,-2.0193,-2.0197,-2.0213,-2.0237,-2.0251,-2.0278,-2.03,-2.032,-2.0328,-2.0323,-2.0322,-2.0329,-2.0329,-2.0327,-2.0329,-2.0257,-2.0321,-2.032,-2.032,-2.032,-2.0319,-2.0128,-2.0147,-2.0163,-2.0185,-2.0198,-2.0212,-2.0231,-2.0238,-2.0258,-2.0281,-2.0281,-2.0307,-2.0321,-2.0348,-2.0357,-2.0377,-2.0369,-2.0378,-2.038,-2.0382,-2.0384,-2.0324,-2.038,-2.038,-2.038,-2.038,-2.038,0,-2.0182,-2.0192,-2.0213,-2.0236,-2.0254,-2.0248,-2.0265,-2.028,-2.0303,-2.0317,-2.0335,-2.0362,-2.0384,-2.0393,-2.0414,-2.0428,-2.0426,-2.0433,-2.0432,-2.0434,-2.039,-2.0383,-2.0435,-2.0435,-2.0435,-2.0435,-2.0435,-2.0435,-2.0213,-2.0244,-2.0248,-2.0285,-2.0295,-2.0321,-2.0331,-2.0344,-2.0356,-2.0387,-2.0405,-2.0411,-2.0423,-2.0445,-2.0464,-2.0466,-2.0474,-2.0483,-2.0484,-2.0443,-2.0437,-2.0432,-2.0425,-2.0485,-2.0485,-2.0526,-2.0526,-2.0527]}]]